| Temperature (°F) | Max | Average | Min |
|---|---|---|---|
| Max Temperature | 55 | 42.42 | 29 |
| Avg Temperature | 47.88 | 36.22 | 17.33 |
| Min Temperature | 44 | 29.48 | 7 |
| Precipitation (in) | Max | Average | Min | Sum |
|---|---|---|---|---|
| Precipitation | 0.98 | 0.15 | 0 | 4.61 |
| Dew Point (°F) | Max | Average | Min |
|---|---|---|---|
| Dew Point | 43.17 | 31.85 | 12.25 |
| Wind (mph) | Max | Average | Min |
|---|---|---|---|
| Wind | 35 | 14.19 | 5 |
| Gust Wind | 61 | 10.79 | 0 |
| Sea Level Pressure (in) | Max | Average | Min |
|---|---|---|---|
| Sea Level Pressure | 29.7 | 28.7 | 27.97 |
| Date | Temp High/Low | Dew Pt High/Low | Humidity | Wind | Max Wind | Wind Gust | Pressure | Precip. | Condition |
|---|---|---|---|---|---|---|---|---|---|
| 3/1/2023 | 43 °F / 35 °F | 37 °F / 31 °F | 78 % | 17 mph | - | 29.7 in | 0 in | ||
| 3/2/2023 | 45 °F / 35 °F | 33 °F / 30 °F | 73 % | 13 mph | - | 29.53 in | 0 in | ||
| 3/3/2023 | 43 °F / 32 °F | 33 °F / 27 °F | 79 % | 10 mph | - | 29.54 in | 0.01 in | ||
| 3/4/2023 | 41 °F / 32 °F | 38 °F / 31 °F | 93 % | 12 mph | - | 29.45 in | 0.03 in | ||
| 3/5/2023 | 43 °F / 33 °F | 37 °F / 32 °F | 92 % | 12 mph | - | 29.05 in | 0.26 in | ||
| 3/6/2023 | 37 °F / 27 °F | 35 °F / 23 °F | 88 % | 13 mph | - | 28.7 in | 0.3 in | ||
| 3/7/2023 | 29 °F / 15 °F | 26 °F / 11 °F | 91 % | 13 mph | - | 28.59 in | 0 in | ||
| 3/8/2023 | 33 °F / 7 °F | 22 °F / 3 °F | 82 % | 5 mph | - | 28.51 in | 0.08 in | ||
| 3/9/2023 | 34 °F / 10 °F | 27 °F / 8 °F | 82 % | 15 mph | - | 28.57 in | 0.04 in | ||
| 3/10/2023 | 36 °F / 15 °F | 31 °F / 11 °F | 82 % | 15 mph | - | 28.69 in | 0.06 in | ||
| 3/11/2023 | 35 °F / 14 °F | 29 °F / 11 °F | 81 % | 16 mph | - | 28.74 in | 0.02 in | ||
| 3/12/2023 | 38 °F / 30 °F | 35 °F / 28 °F | 94 % | 13 mph | - | 28.33 in | 0.56 in | ||
| 3/13/2023 | 36 °F / 26 °F | 36 °F / 20 °F | 85 % | 25 mph | - | 28.05 in | 0.3 in | ||
| 3/14/2023 | 35 °F / 21 °F | 28 °F / 19 °F | 82 % | 14 mph | - | 28.62 in | 0.03 in | ||
| 3/15/2023 | 38 °F / 28 °F | 31 °F / 24 °F | 83 % | 12 mph | - | 28.79 in | 0.1 in | ||
| 3/16/2023 | 45 °F / 33 °F | 43 °F / 31 °F | 94 % | 10 mph | - | 28.4 in | 0.22 in | ||
| 3/17/2023 | 51 °F / 40 °F | 44 °F / 37 °F | 90 % | 12 mph | - | 28.5 in | 0.06 in | ||
| 3/18/2023 | 49 °F / 40 °F | 47 °F / 37 °F | 91 % | 14 mph | - | 28.65 in | 0.24 in | ||
| 3/19/2023 | 44 °F / 35 °F | 41 °F / 33 °F | 86 % | 23 mph | - | 28.9 in | 0.05 in | ||
| 3/20/2023 | 45 °F / 29 °F | 42 °F / 28 °F | 91 % | 13 mph | - | 28.82 in | 0.06 in | ||
| 3/21/2023 | 53 °F / 44 °F | 46 °F / 42 °F | 87 % | 13 mph | - | 28.42 in | 0.17 in | ||
| 3/22/2023 | 46 °F / 37 °F | 43 °F / 32 °F | 82 % | 35 mph | - | 27.97 in | 0.98 in | ||
| 3/23/2023 | 49 °F / 38 °F | 38 °F / 34 °F | 78 % | 12 mph | - | 28.07 in | 0.14 in | ||
| 3/24/2023 | 47 °F / 38 °F | 41 °F / 35 °F | 88 % | 14 mph | - | 28.13 in | 0.23 in | ||
| 3/25/2023 | 43 °F / 36 °F | 36 °F / 28 °F | 75 % | 16 mph | - | 28.58 in | 0 in | ||
| 3/26/2023 | 36 °F / 36 °F | 29 °F / 29 °F | 74 % | 5 mph | - | 28.8 in | 0 in | ||
| 3/27/2023 | 43 °F / 22 °F | 28 °F / 19 °F | 74 % | 12 mph | - | 29.22 in | 0 in | ||
| 3/28/2023 | 40 °F / 25 °F | 38 °F / 22 °F | 89 % | 12 mph | - | 28.86 in | 0.38 in | ||
| 3/29/2023 | 50 °F / 39 °F | 46 °F / 38 °F | 93 % | 17 mph | - | 28.52 in | 0.21 in | ||
| 3/30/2023 | 55 °F / 38 °F | 46 °F / 36 °F | 79 % | 9 mph | - | 28.37 in | 0.08 in | ||
| 3/31/2023 | 53 °F / 31 °F | 44 °F / 30 °F | 88 % | 15 mph | - | 28.45 in | 0 in |